Location: Saluda
(35.2377°N, 82.3468°W)
Time: 15:19:47
(UTC+00:00)

SR - Pass Details

Date: 08 October 2022
Orbit: 577 x 875 km, 66.7° (Epoch: 28 November)

Event Time Altitude Azimuth Distance (km) Brightness Sun altitude
Rises 11:11:27 0° 319° (NW) 3,223 ? -4.6°
Reaches altitude 10° 11:14:17 10° 307° (NW) 2,237 ? -4.0°
Maximum altitude 11:18:20 25° 254° (WSW) 1,403 ? -3.2°
Drops below altitude 10° 11:22:08 10° 200° (SSW) 2,069 ? -2.4°
Sets 11:24:40 0° 186° (S) 2,927 ? -1.9°
